map of FNI home
FNI - Airport
Location
City:  Nīmes, Languedoc-Roussillon, France
Name:NAS Nīmes-Garons
ICAO:LFTW
IATA:FNI

Details
Type:Airport (Aerodrome, Airfield)
Use:Public/Civil
Latitude:43°45'27"N (43.757500)
Longitude:4°24'59"E (4.416389)
Elevation:309 ft (94 m)
Variation:1.48°E (WMM2015 magnetic declination)
0.12° annual change
Runways:1
Longest:8015 × 148 ft (2443 × 45 m), paved

Time
Time Zone:UTC+1 (DST+2)
Local Time:

Weather
METAR:LFTW 170600Z AUTO 09003KT 9999 FEW014 OVC052 08/07 Q1014 TEMPO BKN010
TAF:LFTW 170200Z 1703/1803 VRB05KT 9999 FEW020
TEMPO 1703/1709 BKN013
BECMG 1711/1713 30010KT CAVOK

Related Locations
Nearby:
Farthest:CHT: 12397 mi / 19951 km
Waitangi [Tuuta], CIT, NZ

Find:

   beyond  
but within

Other Information
Maps:
NOTAMs:
Links:
Sources:

  
  • flag of France
  • flag of Languedoc-Roussillon
  

Sectional Chart

Flight Planning
at skyvector.com

Satellite Image

Google Maps Satellite view

 

Copyright © 2004-2019 Karl L. Swartz. All rights reserved.
The Great Circle Mapper name and logo are trademarks of the Great Circle Mapper.
All other trademarks mentioned herein belong to their respective owners.
Please see credits for attibutions and further copyright information.

  Follow gcmap on Facebook Follow gcmap on Twitter Follow gcmap on Google+ GCmap on LinkedIn

hCard Microformat

Geo Microformat